JTC232 TGPY-TXKF

Flight info

Callsign JTC232
Flight time 3h 8m
Altitude 40000
Route ITLUV UL452 ANADA L459 CAFFE/N0486F430 L459 ODUCA DCT KEEKA/M086F410 DCT GECAL POPOP1
Aircraft C750/M-SBDE3FGHRWXY/S

Departure

Time 2026-05-07 16:57
Airport Maurice Bishop International Airport (TGPY)

Arrival

Time 2026-05-07 20:05
Airport L.F. Wade International Airport (TXKF)
Time Latitude Longitude Altitude Speed Heading
2026-05-07 16:43 12.00601 -61.78765 42 ft 0 kts 86°
2026-05-07 16:53 12.00602 -61.78751 42 ft 5 kts 86°
2026-05-07 16:53 12.00575 -61.78718 41 ft 8 kts 129°
2026-05-07 16:53 12.00572 -61.78660 41 ft 8 kts 90°
2026-05-07 16:53 12.00558 -61.78606 40 ft 9 kts 132°
2026-05-07 16:54 12.00483 -61.78595 38 ft 14 kts 181°
2026-05-07 16:54 12.00408 -61.78633 38 ft 13 kts 267°
2026-05-07 16:54 12.00409 -61.78758 38 ft 20 kts 270°
2026-05-07 16:54 12.00409 -61.78897 37 ft 20 kts 270°
2026-05-07 16:55 12.00411 -61.79038 36 ft 20 kts 270°
2026-05-07 16:55 12.00412 -61.79182 35 ft 21 kts 270°
2026-05-07 16:55 12.00412 -61.79341 34 ft 22 kts 270°
2026-05-07 16:55 12.00413 -61.79494 33 ft 21 kts 270°
2026-05-07 16:56 12.00414 -61.79637 32 ft 19 kts 270°
2026-05-07 16:56 12.00415 -61.79768 31 ft 16 kts 275°
2026-05-07 16:56 12.00414 -61.79840 30 ft 2 kts 90°
2026-05-07 16:57 12.00414 -61.79737 31 ft 49 kts 91°
2026-05-07 16:57 12.00408 -61.79053 37 ft 133 kts 91°
2026-05-07 16:57 12.00394 -61.78029 374 ft 150 kts 94°
2026-05-07 16:57 12.00458 -61.76912 796 ft 168 kts 86°
2026-05-07 16:58 12.00511 -61.75627 986 ft 194 kts 88°
2026-05-07 16:58 12.00526 -61.74148 1286 ft 223 kts 89°
2026-05-07 16:58 12.00543 -61.72482 1734 ft 245 kts 89°
2026-05-07 16:58 12.00816 -61.70755 2533 ft 253 kts 67°
2026-05-07 16:59 12.01744 -61.69249 3518 ft 249 kts 53°
2026-05-07 16:59 12.03022 -61.68029 4266 ft 261 kts 33°
2026-05-07 16:59 12.04757 -61.67472 5036 ft 270 kts
2026-05-07 16:59 12.06637 -61.67718 5780 ft 280 kts 343°
2026-05-07 17:00 12.08265 -61.68823 6578 ft 285 kts 317°
2026-05-07 17:00 12.09633 -61.70289 7391 ft 288 kts 314°
2026-05-07 17:00 12.10995 -61.71805 8271 ft 290 kts 314°
2026-05-07 17:00 12.12381 -61.73321 9107 ft 294 kts 315°
2026-05-07 17:01 12.13801 -61.74853 9873 ft 297 kts 315°
2026-05-07 17:01 12.15245 -61.76419 10294 ft 313 kts 315°
2026-05-07 17:01 12.16796 -61.78107 10325 ft 339 kts 315°
2026-05-07 17:01 12.18469 -61.79931 10388 ft 362 kts 315°
2026-05-07 17:02 12.20196 -61.81816 11024 ft 363 kts 315°
2026-05-07 17:02 12.21921 -61.83696 11694 ft 363 kts 315°
2026-05-07 17:02 12.23658 -61.85583 12293 ft 366 kts 315°
2026-05-07 17:02 12.25406 -61.87485 12894 ft 368 kts 315°
2026-05-07 17:03 12.26571 -61.88755 13281 ft 370 kts 315°
2026-05-07 17:03 12.28340 -61.90684 13852 ft 373 kts 315°
2026-05-07 17:03 12.30124 -61.92627 14375 ft 376 kts 315°
2026-05-07 17:03 12.31919 -61.94584 14880 ft 379 kts 315°
2026-05-07 17:04 12.33723 -61.96551 15441 ft 379 kts 315°
2026-05-07 17:04 12.36120 -61.99165 16215 ft 381 kts 314°
2026-05-07 17:04 12.37343 -62.00499 16626 ft 381 kts 314°
2026-05-07 17:04 12.39168 -62.02489 17147 ft 385 kts 313°
2026-05-07 17:05 12.40997 -62.04485 17796 ft 385 kts 313°
2026-05-07 17:05 12.42839 -62.06496 18299 ft 390 kts 312°
2026-05-07 17:05 12.44704 -62.08531 18780 ft 393 kts 312°
2026-05-07 17:05 12.46576 -62.10575 19340 ft 395 kts 312°
2026-05-07 17:06 12.48465 -62.12639 19795 ft 399 kts 312°
2026-05-07 17:06 12.50369 -62.14719 20325 ft 402 kts 311°
2026-05-07 17:06 12.52268 -62.16792 20815 ft 406 kts 311°
2026-05-07 17:06 12.54207 -62.18912 21304 ft 410 kts 311°
2026-05-07 17:07 12.56164 -62.21051 21815 ft 413 kts 311°
2026-05-07 17:07 12.58137 -62.23208 22324 ft 417 kts 311°
2026-05-07 17:07 12.60126 -62.25385 22809 ft 421 kts 311°
2026-05-07 17:07 12.62137 -62.27584 23319 ft 424 kts 311°
2026-05-07 17:08 12.64159 -62.29796 23783 ft 428 kts 311°
2026-05-07 17:08 12.66197 -62.32027 24235 ft 430 kts 311°
2026-05-07 17:08 12.68245 -62.34269 24693 ft 432 kts 311°
2026-05-07 17:08 12.70303 -62.36522 25147 ft 434 kts 311°
2026-05-07 17:09 12.72370 -62.38786 25600 ft 436 kts 310°
2026-05-07 17:09 12.74450 -62.41065 26051 ft 439 kts 310°
2026-05-07 17:09 12.76542 -62.43358 26505 ft 441 kts 310°
2026-05-07 17:09 12.78644 -62.45662 26950 ft 444 kts 310°
2026-05-07 17:10 12.80756 -62.47977 27393 ft 446 kts 310°
2026-05-07 17:10 12.82878 -62.50305 27835 ft 449 kts 310°
2026-05-07 17:10 12.85014 -62.52648 28276 ft 451 kts 310°
2026-05-07 17:10 12.87161 -62.55004 28713 ft 453 kts 310°
2026-05-07 17:11 12.89316 -62.57370 29136 ft 456 kts 310°
2026-05-07 17:11 12.91486 -62.59751 29548 ft 458 kts 310°
2026-05-07 17:11 12.93663 -62.62142 29948 ft 460 kts 310°
2026-05-07 17:11 12.95831 -62.64522 30290 ft 444 kts 309°
2026-05-07 17:12 12.97885 -62.66769 30368 ft 428 kts 309°
2026-05-07 17:12 12.99938 -62.69038 30354 ft 440 kts 309°
2026-05-07 17:12 13.02053 -62.71376 30354 ft 452 kts 309°
2026-05-07 17:12 13.04226 -62.73758 30371 ft 463 kts 309°
2026-05-07 17:13 13.06434 -62.76176 30693 ft 464 kts 309°
2026-05-07 17:13 13.08606 -62.78566 31084 ft 464 kts 309°
2026-05-07 17:13 13.10800 -62.80986 31634 ft 461 kts 309°
2026-05-07 17:13 13.12978 -62.83382 32147 ft 458 kts 309°
2026-05-07 17:14 13.15145 -62.85768 32644 ft 456 kts 309°
2026-05-07 17:14 13.17303 -62.88145 33155 ft 454 kts 309°
2026-05-07 17:14 13.19447 -62.90508 33673 ft 451 kts 309°
2026-05-07 17:14 13.21582 -62.92861 34168 ft 449 kts 309°
2026-05-07 17:15 13.23711 -62.95208 34584 ft 448 kts 308°
2026-05-07 17:15 13.25836 -62.97542 34959 ft 448 kts 309°
2026-05-07 17:15 13.28193 -62.99672 35309 ft 454 kts 318°
2026-05-07 17:15 13.30829 -63.01476 35712 ft 456 kts 322°
2026-05-07 17:16 13.33501 -63.03232 36120 ft 455 kts 322°
2026-05-07 17:16 13.36155 -63.05000 36526 ft 455 kts 322°
2026-05-07 17:16 13.38809 -63.06772 36943 ft 454 kts 322°
2026-05-07 17:16 13.41465 -63.08531 37363 ft 454 kts 322°
2026-05-07 17:17 13.44084 -63.10263 37774 ft 453 kts 322°
2026-05-07 17:17 13.46734 -63.12023 38196 ft 453 kts 322°
2026-05-07 17:17 13.49382 -63.13785 38622 ft 453 kts 322°
2026-05-07 17:17 13.52024 -63.15541 38977 ft 452 kts 322°
2026-05-07 17:18 13.54664 -63.17292 39392 ft 450 kts 322°
2026-05-07 17:18 13.57287 -63.19035 39843 ft 447 kts 322°
2026-05-07 17:18 13.59903 -63.20777 40008 ft 452 kts 322°
2026-05-07 17:18 13.62572 -63.22556 40006 ft 461 kts 323°
2026-05-07 17:19 13.68062 -63.26204 40028 ft 475 kts 323°
2026-05-07 17:19 13.73631 -63.29910 40026 ft 477 kts 323°
2026-05-07 17:20 13.79204 -63.33622 40028 ft 478 kts 323°
2026-05-07 17:20 13.84787 -63.37343 40027 ft 478 kts 323°
2026-05-07 17:21 13.90332 -63.41041 40026 ft 478 kts 323°
2026-05-07 17:21 13.95950 -63.44789 40021 ft 478 kts 323°
2026-05-07 17:22 14.01532 -63.48515 40018 ft 478 kts 323°
2026-05-07 17:22 14.07087 -63.52226 40048 ft 478 kts 323°
2026-05-07 17:23 14.12675 -63.55961 40021 ft 479 kts 323°
2026-05-07 17:23 14.18265 -63.59700 40021 ft 479 kts 323°
2026-05-07 17:24 14.23848 -63.63435 40025 ft 479 kts 323°
2026-05-07 17:24 14.29433 -63.67175 40024 ft 479 kts 323°
2026-05-07 17:25 14.35019 -63.70918 40027 ft 479 kts 323°
2026-05-07 17:25 14.40610 -63.74666 40025 ft 479 kts 324°
2026-05-07 17:26 14.46195 -63.78412 40026 ft 479 kts 324°
2026-05-07 17:26 14.51782 -63.82162 40029 ft 479 kts 324°
2026-05-07 17:27 14.57364 -63.85911 40031 ft 479 kts 324°
2026-05-07 17:27 14.62914 -63.89641 40031 ft 479 kts 324°
2026-05-07 17:28 14.68498 -63.93396 40029 ft 479 kts 324°
2026-05-07 17:28 14.74094 -63.97161 40030 ft 479 kts 324°
2026-05-07 17:29 14.79681 -64.00923 40032 ft 479 kts 324°
2026-05-07 17:29 14.85268 -64.04687 40032 ft 479 kts 324°
2026-05-07 17:30 14.90852 -64.08451 40029 ft 479 kts 324°
2026-05-07 17:30 14.96440 -64.12204 40024 ft 479 kts 326°
2026-05-07 17:31 15.02627 -64.14838 40028 ft 486 kts 344°
2026-05-07 17:31 15.09324 -64.15686 40042 ft 490 kts 353°
2026-05-07 17:32 15.16089 -64.16424 40036 ft 487 kts 350°
2026-05-07 17:32 15.21738 -64.17105 40041 ft 488 kts 352°
2026-05-07 17:33 15.29590 -64.17951 40034 ft 488 kts 351°
2026-05-07 17:33 15.36345 -64.18738 40036 ft 488 kts 351°
2026-05-07 17:34 15.43099 -64.19486 40035 ft 488 kts 351°
2026-05-07 17:34 15.49832 -64.20259 40036 ft 485 kts 351°
2026-05-07 17:35 15.56547 -64.21013 40040 ft 485 kts 351°
2026-05-07 17:35 15.63275 -64.21780 40038 ft 486 kts 351°
2026-05-07 17:36 15.69998 -64.22540 40039 ft 486 kts 351°
2026-05-07 17:36 15.76717 -64.23304 40049 ft 486 kts 352°
2026-05-07 17:37 15.83409 -64.24064 40044 ft 483 kts 352°
2026-05-07 17:37 15.90060 -64.24820 40044 ft 483 kts 352°
2026-05-07 17:38 15.96750 -64.25581 40044 ft 484 kts 352°
2026-05-07 17:38 16.03445 -64.26343 40044 ft 484 kts 352°
2026-05-07 17:39 16.10131 -64.27104 40044 ft 481 kts 352°
2026-05-07 17:39 16.16748 -64.27859 40042 ft 479 kts 352°
2026-05-07 17:40 16.23370 -64.28614 40048 ft 479 kts 352°
2026-05-07 17:40 16.30005 -64.29371 40049 ft 479 kts 352°
2026-05-07 17:41 16.36634 -64.30128 40049 ft 479 kts 352°
2026-05-07 17:41 16.43259 -64.30885 40050 ft 479 kts 352°
2026-05-07 17:42 16.49883 -64.31643 40053 ft 479 kts 352°
2026-05-07 17:42 16.56469 -64.32397 40053 ft 479 kts 352°
2026-05-07 17:43 16.63091 -64.33155 40049 ft 479 kts 352°
2026-05-07 17:43 16.69715 -64.33914 40050 ft 479 kts 352°
2026-05-07 17:44 16.76321 -64.34672 40045 ft 475 kts 353°
2026-05-07 17:44 16.82900 -64.35427 40044 ft 475 kts 353°
2026-05-07 17:45 16.89474 -64.36182 40042 ft 473 kts 353°
2026-05-07 17:45 16.96006 -64.36932 40042 ft 473 kts 353°
2026-05-07 17:46 17.02553 -64.37685 40046 ft 472 kts 353°
2026-05-07 17:46 17.09073 -64.38436 40052 ft 469 kts 354°
2026-05-07 17:47 17.15566 -64.39183 40057 ft 470 kts 354°
2026-05-07 17:47 17.22067 -64.39933 40057 ft 470 kts 354°
2026-05-07 17:48 17.28566 -64.40682 40059 ft 470 kts 354°
2026-05-07 17:48 17.35025 -64.41428 40059 ft 470 kts 354°
2026-05-07 17:49 17.41504 -64.42176 40065 ft 466 kts 354°
2026-05-07 17:49 17.47961 -64.42922 40064 ft 466 kts 354°
2026-05-07 17:50 17.54414 -64.43669 40067 ft 467 kts 354°
2026-05-07 17:50 17.59779 -64.44289 40068 ft 467 kts 354°
2026-05-07 17:51 17.66231 -64.45037 40068 ft 466 kts 354°
2026-05-07 17:51 17.72669 -64.45783 40067 ft 462 kts 354°
2026-05-07 17:52 17.79067 -64.46524 40069 ft 463 kts 354°
2026-05-07 17:52 17.85472 -64.47268 40069 ft 463 kts 354°
2026-05-07 17:53 17.91881 -64.48013 40073 ft 463 kts 354°
2026-05-07 17:53 17.98286 -64.48757 40076 ft 463 kts 354°
2026-05-07 17:54 18.04671 -64.49500 40082 ft 459 kts 355°
2026-05-07 17:54 18.11034 -64.50240 40081 ft 460 kts 355°
2026-05-07 17:55 18.17392 -64.50981 40080 ft 460 kts 355°
2026-05-07 17:55 18.23763 -64.51724 40080 ft 460 kts 355°
2026-05-07 17:56 18.30129 -64.52467 40092 ft 460 kts 355°
2026-05-07 17:56 18.36467 -64.53207 40102 ft 456 kts 355°
2026-05-07 17:57 18.41728 -64.53820 40094 ft 457 kts 355°
2026-05-07 17:57 18.49073 -64.54680 40096 ft 457 kts 355°
2026-05-07 17:58 18.55405 -64.55421 40095 ft 457 kts 355°
2026-05-07 17:58 18.61726 -64.56161 40091 ft 457 kts 355°
2026-05-07 17:59 18.68033 -64.56901 40082 ft 453 kts 355°
2026-05-07 17:59 18.74312 -64.57636 40077 ft 454 kts 355°
2026-05-07 18:00 18.80590 -64.58373 40073 ft 454 kts 355°
2026-05-07 18:00 18.86829 -64.59106 40074 ft 454 kts 355°
2026-05-07 18:01 18.93118 -64.59845 40074 ft 454 kts 355°
2026-05-07 18:01 18.99385 -64.60583 40076 ft 452 kts 355°
2026-05-07 18:02 19.08771 -64.61687 40079 ft 452 kts 355°
2026-05-07 18:03 19.15026 -64.62424 40079 ft 452 kts 355°
2026-05-07 18:03 19.21279 -64.63162 40079 ft 452 kts 355°
2026-05-07 18:04 19.27538 -64.63900 40086 ft 451 kts 355°
2026-05-07 18:04 19.33741 -64.64633 40082 ft 448 kts 355°
2026-05-07 18:05 19.39905 -64.65361 40085 ft 448 kts 355°
2026-05-07 18:05 19.46110 -64.66096 40086 ft 448 kts 355°
2026-05-07 18:06 19.52313 -64.66830 40084 ft 448 kts 355°
2026-05-07 18:06 19.58516 -64.67565 40084 ft 448 kts 355°
2026-05-07 18:07 19.64719 -64.68300 40087 ft 449 kts 355°
2026-05-07 18:07 19.70927 -64.69037 40087 ft 448 kts 355°
2026-05-07 18:08 19.77131 -64.69774 40087 ft 449 kts 355°
2026-05-07 18:08 19.83333 -64.70511 40087 ft 449 kts 355°
2026-05-07 18:09 19.89539 -64.71249 40089 ft 448 kts 355°
2026-05-07 18:09 19.95695 -64.71982 40089 ft 445 kts 355°
2026-05-07 18:10 20.01857 -64.72716 40088 ft 445 kts 355°
2026-05-07 18:10 20.07982 -64.73446 40088 ft 445 kts 355°
2026-05-07 18:11 20.14140 -64.74181 40088 ft 445 kts 355°
2026-05-07 18:11 20.20304 -64.74917 40100 ft 445 kts 355°
2026-05-07 18:12 20.26420 -64.75648 40091 ft 441 kts 355°
2026-05-07 18:12 20.32524 -64.76378 40091 ft 442 kts 355°
2026-05-07 18:13 20.38633 -64.77109 40088 ft 442 kts 355°
2026-05-07 18:13 20.44742 -64.77841 40089 ft 442 kts 355°
2026-05-07 18:14 20.50850 -64.78574 40097 ft 442 kts 355°
2026-05-07 18:14 20.56922 -64.79302 40097 ft 438 kts 355°
2026-05-07 18:15 20.62990 -64.80031 40097 ft 439 kts 355°
2026-05-07 18:15 20.69051 -64.80759 40097 ft 438 kts 355°
2026-05-07 18:16 20.75121 -64.81489 40104 ft 438 kts 355°
2026-05-07 18:16 20.81152 -64.82216 40105 ft 439 kts 355°
2026-05-07 18:17 20.87189 -64.82943 40093 ft 436 kts 355°
2026-05-07 18:17 20.93219 -64.83670 40093 ft 436 kts 355°
2026-05-07 18:18 20.99254 -64.84398 40096 ft 436 kts 355°
2026-05-07 18:18 21.05290 -64.85127 40096 ft 436 kts 355°
2026-05-07 18:19 21.11321 -64.85890 40089 ft 437 kts 353°
2026-05-07 18:19 21.17212 -64.87460 40089 ft 435 kts 348°
2026-05-07 18:20 21.23091 -64.89082 40095 ft 436 kts 348°
2026-05-07 18:20 21.28958 -64.90736 40097 ft 436 kts 348°
2026-05-07 18:21 21.34829 -64.92376 40095 ft 436 kts 348°
2026-05-07 18:21 21.40692 -64.94023 40097 ft 436 kts 348°
2026-05-07 18:22 21.46550 -64.95667 40100 ft 433 kts 348°
2026-05-07 18:22 21.52376 -64.97303 40100 ft 433 kts 348°
2026-05-07 18:23 21.58195 -64.98940 40089 ft 432 kts 348°
2026-05-07 18:23 21.63972 -65.00564 40089 ft 432 kts 348°
2026-05-07 18:24 21.69783 -65.02201 40086 ft 432 kts 348°
2026-05-07 18:24 21.75600 -65.03841 40093 ft 432 kts 348°
2026-05-07 18:25 21.81396 -65.05476 40095 ft 430 kts 348°
2026-05-07 18:25 21.87187 -65.07111 40095 ft 430 kts 348°
2026-05-07 18:26 21.92985 -65.08749 40093 ft 430 kts 348°
2026-05-07 18:26 21.98775 -65.10386 40093 ft 430 kts 348°
2026-05-07 18:27 22.04568 -65.12026 40096 ft 430 kts 348°
2026-05-07 18:27 22.10349 -65.13413 40089 ft 426 kts 355°
2026-05-07 18:28 22.16273 -65.13711 40093 ft 425 kts 359°
2026-05-07 18:28 22.22190 -65.13950 40101 ft 425 kts 359°
2026-05-07 18:29 22.28109 -65.14158 40106 ft 425 kts 359°
2026-05-07 18:29 22.34021 -65.14381 40106 ft 425 kts 359°
2026-05-07 18:30 22.39927 -65.14598 40101 ft 423 kts 359°
2026-05-07 18:30 22.45821 -65.14817 40100 ft 424 kts 359°
2026-05-07 18:31 22.51716 -65.15035 40099 ft 424 kts 359°
2026-05-07 18:31 22.54654 -65.15144 40480 ft 415 kts 359°
2026-05-07 18:31 22.57407 -65.15249 41755 ft 389 kts 359°
2026-05-07 18:31 22.60087 -65.15348 42272 ft 384 kts 358°
2026-05-07 18:32 22.62762 -65.15445 42562 ft 385 kts 358°
2026-05-07 18:32 22.65442 -65.15544 42927 ft 384 kts 358°
2026-05-07 18:32 22.68119 -65.15645 43089 ft 388 kts 358°
2026-05-07 18:33 22.73617 -65.15849 43099 ft 402 kts 358°
2026-05-07 18:33 22.79288 -65.16060 43111 ft 413 kts 358°
2026-05-07 18:34 22.85059 -65.16275 43104 ft 416 kts 358°
2026-05-07 18:34 22.90856 -65.16490 43103 ft 416 kts 358°
2026-05-07 18:35 22.96656 -65.16707 43097 ft 415 kts 358°
2026-05-07 18:35 23.01453 -65.16886 43096 ft 415 kts 358°
2026-05-07 18:36 23.08176 -65.17137 43102 ft 415 kts 358°
2026-05-07 18:36 23.13950 -65.17353 43106 ft 415 kts 358°
2026-05-07 18:37 23.18754 -65.17532 43102 ft 415 kts 358°
2026-05-07 18:37 23.24530 -65.17749 43097 ft 415 kts 358°
2026-05-07 18:38 23.30302 -65.17965 43099 ft 415 kts 358°
2026-05-07 18:38 23.36074 -65.18182 43103 ft 415 kts 358°
2026-05-07 18:39 23.41841 -65.18398 43096 ft 415 kts 358°
2026-05-07 18:39 23.47620 -65.18615 43094 ft 415 kts 358°
2026-05-07 18:40 23.53388 -65.18833 43098 ft 415 kts 358°
2026-05-07 18:40 23.59156 -65.19050 43102 ft 414 kts 358°
2026-05-07 18:41 23.64921 -65.19267 43101 ft 414 kts 358°
2026-05-07 18:41 23.70648 -65.19483 43105 ft 414 kts 358°
2026-05-07 18:42 23.76453 -65.19702 43109 ft 414 kts 358°
2026-05-07 18:42 23.82189 -65.19919 43107 ft 414 kts 358°
2026-05-07 18:43 23.87950 -65.20137 43103 ft 415 kts 358°
2026-05-07 18:43 23.93725 -65.20356 43107 ft 415 kts 358°
2026-05-07 18:44 23.99491 -65.20574 43101 ft 415 kts 358°
2026-05-07 18:44 24.05256 -65.20793 43100 ft 415 kts 358°
2026-05-07 18:45 24.11021 -65.21012 43106 ft 415 kts 358°
2026-05-07 18:45 24.16795 -65.21232 43108 ft 415 kts 358°
2026-05-07 18:46 24.22571 -65.21451 43103 ft 415 kts 358°
2026-05-07 18:46 24.28299 -65.21669 43111 ft 415 kts 358°
2026-05-07 18:47 24.34071 -65.21889 43105 ft 415 kts 358°
2026-05-07 18:47 24.39838 -65.22109 43115 ft 415 kts 358°
2026-05-07 18:48 24.45616 -65.22330 43108 ft 416 kts 358°
2026-05-07 18:48 24.51400 -65.22550 43110 ft 416 kts 358°
2026-05-07 18:49 24.57178 -65.22772 43109 ft 416 kts 358°
2026-05-07 18:49 24.62961 -65.22993 43109 ft 416 kts 358°
2026-05-07 18:50 24.68747 -65.23215 43112 ft 416 kts 358°
2026-05-07 18:50 24.74539 -65.23438 43106 ft 417 kts 358°
2026-05-07 18:51 24.80345 -65.23659 43104 ft 417 kts 358°
2026-05-07 18:51 24.86105 -65.23881 43104 ft 417 kts 358°
2026-05-07 18:52 24.91902 -65.24104 43108 ft 417 kts 358°
2026-05-07 18:52 24.97705 -65.24327 43108 ft 417 kts 358°
2026-05-07 18:53 25.03520 -65.24552 43101 ft 419 kts 358°
2026-05-07 18:53 25.09347 -65.24776 43106 ft 419 kts 358°
2026-05-07 18:54 25.15182 -65.25001 43106 ft 419 kts 358°
2026-05-07 18:54 25.21002 -65.25226 43102 ft 419 kts 358°
2026-05-07 18:55 25.26825 -65.25451 43106 ft 419 kts 358°
2026-05-07 18:55 25.32663 -65.25678 43102 ft 420 kts 358°
2026-05-07 18:56 25.38501 -65.25903 43104 ft 420 kts 358°
2026-05-07 18:56 25.44308 -65.26129 43103 ft 420 kts 358°
2026-05-07 18:57 25.50148 -65.26355 43102 ft 420 kts 358°
2026-05-07 18:57 25.55997 -65.26583 43106 ft 420 kts 358°
2026-05-07 18:58 25.61841 -65.26810 43103 ft 420 kts 358°
2026-05-07 18:58 25.67680 -65.27037 43102 ft 420 kts 358°
2026-05-07 18:59 25.73489 -65.27264 43102 ft 420 kts 358°
2026-05-07 18:59 25.79337 -65.27492 43101 ft 420 kts 358°
2026-05-07 19:00 25.85180 -65.27720 43106 ft 420 kts 357°
2026-05-07 19:00 25.91045 -65.27950 43100 ft 422 kts 357°
2026-05-07 19:01 25.96916 -65.28179 43104 ft 422 kts 357°
2026-05-07 19:01 26.02788 -65.28409 43106 ft 422 kts 357°
2026-05-07 19:02 26.08659 -65.28639 43100 ft 422 kts 357°
2026-05-07 19:02 26.14530 -65.28870 43097 ft 423 kts 357°
2026-05-07 19:03 26.20438 -65.29103 43103 ft 424 kts 357°
2026-05-07 19:03 26.26305 -65.29333 43101 ft 424 kts 357°
2026-05-07 19:04 26.32245 -65.29567 43102 ft 424 kts 357°
2026-05-07 19:04 26.38144 -65.29799 43081 ft 425 kts 357°
2026-05-07 19:05 26.44095 -65.30036 43103 ft 429 kts 357°
2026-05-07 19:05 26.50061 -65.30270 43104 ft 429 kts 357°
2026-05-07 19:06 26.55992 -65.30505 43101 ft 429 kts 357°
2026-05-07 19:06 26.64978 -65.30860 43101 ft 429 kts 357°
2026-05-07 19:07 26.70905 -65.31095 43105 ft 430 kts 357°
2026-05-07 19:07 26.76900 -65.31333 43111 ft 431 kts 357°
2026-05-07 19:08 26.82888 -65.31570 43109 ft 431 kts 357°
2026-05-07 19:08 26.88873 -65.31808 43110 ft 431 kts 357°
2026-05-07 19:09 26.94861 -65.32047 43110 ft 430 kts 357°
2026-05-07 19:09 27.00861 -65.32287 43110 ft 432 kts 357°
2026-05-07 19:10 27.06864 -65.32525 43111 ft 432 kts 357°
2026-05-07 19:10 27.12868 -65.32765 43111 ft 432 kts 357°
2026-05-07 19:11 27.18870 -65.33005 43111 ft 432 kts 357°
2026-05-07 19:11 27.24877 -65.33245 43120 ft 432 kts 357°
2026-05-07 19:12 27.30893 -65.33487 43111 ft 433 kts 357°
2026-05-07 19:12 27.36913 -65.33727 43112 ft 433 kts 357°
2026-05-07 19:13 27.42931 -65.33969 43115 ft 433 kts 357°
2026-05-07 19:13 27.48955 -65.34211 43115 ft 433 kts 357°
2026-05-07 19:14 27.54943 -65.34453 43114 ft 434 kts 357°
2026-05-07 19:14 27.60983 -65.34695 43114 ft 434 kts 357°
2026-05-07 19:15 27.67021 -65.34939 43126 ft 434 kts 357°
2026-05-07 19:15 27.73058 -65.35183 43121 ft 434 kts 357°
2026-05-07 19:16 27.79098 -65.35427 43119 ft 434 kts 357°
2026-05-07 19:16 27.85144 -65.35672 43113 ft 435 kts 356°
2026-05-07 19:17 27.91188 -65.35916 43110 ft 435 kts 356°
2026-05-07 19:17 27.97234 -65.36161 43120 ft 435 kts 356°
2026-05-07 19:18 28.03282 -65.36407 43117 ft 435 kts 356°
2026-05-07 19:18 28.09331 -65.36653 43123 ft 436 kts 356°
2026-05-07 19:19 28.15394 -65.36899 43118 ft 436 kts 356°
2026-05-07 19:19 28.21449 -65.37146 43120 ft 436 kts 356°
2026-05-07 19:20 28.27508 -65.37393 43118 ft 436 kts 356°
2026-05-07 19:20 28.33527 -65.37639 43123 ft 436 kts 356°
2026-05-07 19:21 28.39588 -65.37886 43123 ft 436 kts 356°
2026-05-07 19:21 28.45644 -65.38134 43121 ft 436 kts 356°
2026-05-07 19:22 28.50725 -65.38342 43126 ft 435 kts 356°
2026-05-07 19:22 28.56744 -65.38589 43125 ft 435 kts 356°
2026-05-07 19:23 28.62807 -65.38838 43113 ft 436 kts 356°
2026-05-07 19:23 28.68863 -65.39087 43114 ft 436 kts 356°
2026-05-07 19:24 28.74924 -65.39336 43112 ft 436 kts 356°
2026-05-07 19:24 28.80984 -65.39586 43112 ft 436 kts 356°
2026-05-07 19:25 28.87042 -65.39836 43112 ft 436 kts 356°
2026-05-07 19:25 28.93101 -65.40086 43116 ft 435 kts 356°
2026-05-07 19:26 28.99153 -65.40336 43116 ft 435 kts 356°
2026-05-07 19:26 29.05206 -65.40587 43116 ft 435 kts 356°
2026-05-07 19:27 29.11224 -65.40836 43113 ft 435 kts 356°
2026-05-07 19:27 29.17284 -65.41088 43108 ft 434 kts 356°
2026-05-07 19:28 29.23321 -65.41338 43112 ft 434 kts 356°
2026-05-07 19:28 29.29359 -65.41589 43113 ft 434 kts 356°
2026-05-07 19:29 29.35395 -65.41840 43111 ft 434 kts 356°
2026-05-07 19:29 29.41439 -65.42092 43112 ft 434 kts 356°
2026-05-07 19:30 29.47448 -65.42522 43106 ft 432 kts 354°
2026-05-07 19:30 29.53405 -65.42977 43110 ft 432 kts 354°
2026-05-07 19:31 29.59411 -65.43441 43111 ft 432 kts 354°
2026-05-07 19:31 29.65416 -65.43905 43112 ft 432 kts 354°
2026-05-07 19:32 29.71418 -65.44369 43110 ft 431 kts 354°
2026-05-07 19:32 29.77402 -65.44832 43113 ft 431 kts 354°
2026-05-07 19:33 29.83388 -65.45295 43109 ft 431 kts 354°
2026-05-07 19:33 29.89372 -65.45760 43108 ft 431 kts 354°
2026-05-07 19:34 29.95364 -65.46225 43121 ft 431 kts 354°
2026-05-07 19:34 30.01349 -65.46691 43111 ft 431 kts 354°
2026-05-07 19:35 30.07324 -65.47156 43112 ft 431 kts 354°
2026-05-07 19:35 30.13266 -65.47619 43112 ft 431 kts 354°
2026-05-07 19:36 30.19250 -65.48086 43110 ft 431 kts 354°
2026-05-07 19:36 30.25230 -65.48553 43109 ft 430 kts 353°
2026-05-07 19:37 30.31210 -65.49021 43110 ft 430 kts 353°
2026-05-07 19:37 30.37187 -65.49489 43107 ft 430 kts 353°
2026-05-07 19:38 30.43165 -65.49958 43110 ft 430 kts 353°
2026-05-07 19:38 30.49140 -65.50427 43102 ft 430 kts 353°
2026-05-07 19:39 30.55102 -65.50897 43100 ft 429 kts 353°
2026-05-07 19:39 30.61060 -65.51365 43101 ft 429 kts 353°
2026-05-07 19:40 30.64000 -65.51596 42645 ft 418 kts 353°
2026-05-07 19:40 30.66867 -65.51822 42130 ft 407 kts 353°
2026-05-07 19:40 30.69655 -65.52042 41624 ft 397 kts 352°
2026-05-07 19:40 30.72359 -65.52256 41127 ft 393 kts 352°
2026-05-07 19:41 30.75090 -65.52474 40614 ft 393 kts 352°
2026-05-07 19:41 30.77823 -65.52691 40087 ft 395 kts 352°
2026-05-07 19:41 30.80570 -65.52907 39560 ft 396 kts 352°
2026-05-07 19:41 30.83326 -65.53125 39033 ft 397 kts 352°
2026-05-07 19:42 30.86086 -65.53343 38461 ft 398 kts 351°
2026-05-07 19:42 30.88865 -65.53565 37940 ft 402 kts 351°
2026-05-07 19:42 30.91668 -65.53788 37407 ft 406 kts 352°
2026-05-07 19:42 30.94504 -65.54012 36871 ft 411 kts 352°
2026-05-07 19:43 30.97372 -65.54239 36327 ft 415 kts 352°
2026-05-07 19:43 31.00265 -65.54469 35782 ft 419 kts 352°
2026-05-07 19:43 31.03186 -65.54701 35230 ft 423 kts 352°
2026-05-07 19:43 31.06142 -65.54936 34672 ft 428 kts 352°
2026-05-07 19:44 31.09125 -65.55173 34111 ft 432 kts 352°
2026-05-07 19:44 31.12126 -65.55411 33731 ft 436 kts 352°
2026-05-07 19:44 31.15171 -65.55655 33144 ft 440 kts 352°
2026-05-07 19:44 31.18242 -65.55900 32568 ft 445 kts 352°
2026-05-07 19:45 31.21352 -65.56148 31978 ft 451 kts 352°
2026-05-07 19:45 31.24499 -65.56399 31383 ft 456 kts 352°
2026-05-07 19:45 31.27689 -65.56654 30780 ft 464 kts 352°
2026-05-07 19:45 31.30915 -65.56911 30159 ft 464 kts 352°
2026-05-07 19:46 31.34134 -65.57166 29522 ft 462 kts 352°
2026-05-07 19:46 31.37327 -65.57421 28923 ft 458 kts 352°
2026-05-07 19:46 31.40497 -65.57676 28327 ft 455 kts 352°
2026-05-07 19:46 31.43646 -65.57929 27736 ft 452 kts 352°
2026-05-07 19:47 31.46775 -65.58179 27148 ft 449 kts 352°
2026-05-07 19:47 31.49880 -65.58428 26561 ft 446 kts 352°
2026-05-07 19:47 31.52966 -65.58676 25985 ft 444 kts 352°
2026-05-07 19:47 31.55998 -65.58920 25412 ft 441 kts 352°
2026-05-07 19:48 31.59063 -65.59166 24837 ft 439 kts 352°
2026-05-07 19:48 31.62096 -65.59410 24263 ft 436 kts 352°
2026-05-07 19:48 31.65114 -65.59653 23694 ft 433 kts 353°
2026-05-07 19:48 31.68110 -65.59895 23084 ft 429 kts 353°
2026-05-07 19:49 31.71082 -65.60134 22528 ft 426 kts 353°
2026-05-07 19:49 31.74034 -65.60372 21972 ft 423 kts 353°
2026-05-07 19:49 31.76953 -65.60608 21423 ft 419 kts 353°
2026-05-07 19:49 31.79854 -65.60842 20876 ft 416 kts 353°
2026-05-07 19:50 31.82733 -65.61074 20330 ft 413 kts 353°
2026-05-07 19:50 31.85583 -65.61305 19796 ft 409 kts 353°
2026-05-07 19:50 31.88413 -65.61533 19257 ft 405 kts 353°
2026-05-07 19:50 31.91214 -65.61760 18730 ft 402 kts 353°
2026-05-07 19:51 31.93996 -65.61987 18177 ft 399 kts 353°
2026-05-07 19:51 31.96749 -65.62209 17640 ft 395 kts 353°
2026-05-07 19:51 31.99477 -65.62431 17040 ft 390 kts 353°
2026-05-07 19:51 32.02174 -65.62649 16527 ft 386 kts 353°
2026-05-07 19:52 32.04842 -65.62866 16025 ft 382 kts 353°
2026-05-07 19:52 32.07487 -65.63022 15508 ft 381 kts 357°
2026-05-07 19:52 32.10082 -65.62402 14997 ft 383 kts 17°
2026-05-07 19:52 32.12408 -65.60863 14488 ft 386 kts 35°
2026-05-07 19:53 32.14225 -65.58543 13992 ft 388 kts 54°
2026-05-07 19:53 32.15557 -65.55785 13483 ft 385 kts 60°
2026-05-07 19:53 32.16810 -65.53004 12983 ft 382 kts 60°
2026-05-07 19:53 32.18057 -65.50257 12471 ft 378 kts 60°
2026-05-07 19:54 32.19312 -65.47546 11973 ft 375 kts 59°
2026-05-07 19:54 32.20537 -65.44892 11476 ft 371 kts 59°
2026-05-07 19:54 32.21733 -65.42269 10997 ft 353 kts 60°
2026-05-07 19:54 32.22870 -65.39776 10542 ft 336 kts 59°
2026-05-07 19:55 32.23959 -65.37401 10109 ft 322 kts 59°
2026-05-07 19:55 32.25005 -65.35119 9675 ft 310 kts 59°
2026-05-07 19:55 32.26015 -65.32910 9266 ft 303 kts 59°
2026-05-07 19:55 32.27011 -65.30732 8873 ft 300 kts 59°
2026-05-07 19:56 32.27998 -65.28571 8483 ft 298 kts 60°
2026-05-07 19:56 32.28978 -65.26423 8086 ft 296 kts 60°
2026-05-07 19:56 32.29952 -65.24288 7699 ft 294 kts 60°
2026-05-07 19:56 32.30919 -65.22166 7314 ft 292 kts 60°
2026-05-07 19:57 32.31878 -65.20061 6929 ft 290 kts 61°
2026-05-07 19:57 32.32831 -65.17967 6549 ft 289 kts 61°
2026-05-07 19:57 32.33780 -65.15883 6152 ft 286 kts 61°
2026-05-07 19:57 32.34711 -65.13836 5774 ft 278 kts 61°
2026-05-07 19:58 32.35610 -65.11856 5410 ft 269 kts 62°
2026-05-07 19:58 32.36484 -65.09934 5060 ft 262 kts 62°
2026-05-07 19:58 32.37334 -65.08060 4712 ft 255 kts 62°
2026-05-07 19:58 32.38163 -65.06235 4375 ft 249 kts 62°
2026-05-07 19:59 32.38974 -65.04446 4047 ft 244 kts 62°
2026-05-07 19:59 32.39767 -65.02696 3733 ft 239 kts 62°
2026-05-07 19:59 32.40536 -65.01000 3429 ft 235 kts 62°
2026-05-07 19:59 32.41286 -64.99300 3105 ft 231 kts 65°
2026-05-07 20:00 32.41490 -64.97484 2822 ft 221 kts 100°
2026-05-07 20:00 32.41185 -64.95699 2962 ft 222 kts 103°
2026-05-07 20:00 32.40881 -64.93882 3016 ft 221 kts 102°
2026-05-07 20:00 32.40595 -64.92147 2988 ft 208 kts 103°
2026-05-07 20:01 32.40319 -64.90513 2973 ft 200 kts 103°
2026-05-07 20:01 32.40041 -64.88903 2835 ft 197 kts 103°
2026-05-07 20:01 32.39778 -64.87348 2694 ft 189 kts 103°
2026-05-07 20:01 32.39520 -64.85838 2534 ft 185 kts 103°
2026-05-07 20:02 32.39263 -64.84355 2381 ft 184 kts 103°
2026-05-07 20:02 32.39012 -64.82896 2206 ft 176 kts 103°
2026-05-07 20:02 32.38762 -64.81451 2051 ft 180 kts 103°
2026-05-07 20:02 32.38513 -64.80006 1893 ft 179 kts 104°
2026-05-07 20:03 32.38262 -64.78558 1746 ft 177 kts 103°
2026-05-07 20:03 32.38039 -64.77250 1527 ft 154 kts 104°
2026-05-07 20:03 32.37826 -64.76035 1294 ft 148 kts 104°
2026-05-07 20:03 32.37622 -64.74870 1079 ft 142 kts 104°
2026-05-07 20:04 32.37423 -64.73732 855 ft 142 kts 104°
2026-05-07 20:04 32.37227 -64.72601 694 ft 139 kts 103°
2026-05-07 20:04 32.37034 -64.71472 496 ft 143 kts 104°
2026-05-07 20:04 32.36832 -64.70290 252 ft 149 kts 103°
2026-05-07 20:05 32.36616 -64.69097 50 ft 147 kts 104°
2026-05-07 20:05 32.36420 -64.68007 24 ft 115 kts 101°
2026-05-07 20:05 32.36311 -64.67332 23 ft 64 kts 102°
2026-05-07 20:05 32.36295 -64.67070 25 ft 14 kts 60°
2026-05-07 20:06 32.36334 -64.66971 26 ft 13 kts 70°
2026-05-07 20:06 32.36366 -64.66921 24 ft 1 kts
2026-05-07 20:06 32.36368 -64.66921 24 ft 0 kts 354°
2026-05-07 20:06 32.36371 -64.66923 24 ft 3 kts 342°
2026-05-07 20:07 32.36392 -64.66977 24 ft 9 kts 294°
2026-05-07 20:07 32.36440 -64.66988 23 ft 7 kts 35°
2026-05-07 20:07 32.36450 -64.66963 23 ft 0 kts 98°
2026-05-07 20:07 32.36448 -64.66954 23 ft 0 kts 100°
2026-05-07 20:08 32.36450 -64.66952 23 ft 0 kts 62°
2026-05-07 20:08 32.36453 -64.66952 23 ft 0 kts 11°
2026-05-07 20:08 32.36453 -64.66953 24 ft 0 kts
2026-05-07 20:08 32.36450 -64.66953 24 ft 0 kts
2026-05-07 20:09 32.36451 -64.66953 23 ft 0 kts 11°